Flag for Germany Weather past 2 weeks in Hamburg, Hamburg, Germany

Now
55 °F

Clear.


Feels Like: 55 °F
Forecast: 60 / 88 °F
Wind: 5 mph from Southwest

Location: Hamburg-Fuhlsbuettel

Current Time: Aug 5, 2015 at 7:06:57 AM

Latest Report: Aug 5, 2015 at 6:20 AM


Visibility: 10 mi

Pressure: 30.07 "Hg

Humidity: 100%

Dew point: 55 °F

Location of HamburgLocation

Historic Weather in Hamburg — Graph

°F

Hamburg temperature yesterday

Maximum temperature yesterday: 86 °F (at 1:20 PM)
Minimum temperature yesterday: 61 °F (at 11:20 PM)
Average temperature yesterday: 72 °F

Past Weeks' High & Low Weather Summary

 TemperatureHumidityPressure
High86 °F (Aug 3, 3:20 PM)100% (Jul 24, 1:50 AM)30.15 "Hg (Jul 24, 1:50 AM)
Low45 °F (Aug 1, 1:50 AM)33% (Aug 3, 5:50 PM)29.42 "Hg (Jul 25, 1:20 PM)
Average63 °F75%29.84 "Hg
* Reported Jul 21 5:20 AM — Aug 5 5:20 AM, Hamburg, Weather by CustomWeather, © 2015

Note: Actual official high and low records may vary slightly from our data, if they occured in-between our weather recording intervals... More about our weather records

Advertising

Hamburg weather history for previous 24 hours

 ConditionsComfort  
Time TempWeatherWind HumidityBarometerVisibility
5:20 AM
Wed, Aug 5
55 °FFog.6 mph100%30.04 "HgN/A
4:50 AM57 °FFog.6 mph94%30.04 "HgN/A
4:20 AM57 °FClear.3 mph100%30.04 "Hg10 mi
3:50 AM59 °FClear.5 mph94%30.04 "Hg10 mi
3:20 AM59 °FPassing clouds.5 mph94%30.04 "HgN/A
2:50 AM61 °FPassing clouds.5 mph94%30.04 "HgN/A
2:20 AM61 °FPassing clouds.5 mph94%30.04 "HgN/A
1:50 AM61 °FPassing clouds.6 mph94%30.04 "HgN/A
1:20 AM61 °FPassing clouds.6 mph94%30.01 "HgN/A
12:20 AM61 °FPartly cloudy.6 mph100%30.01 "HgN/A
11:50 PM
Tue, Aug 4
61 °FOvercast.6 mph94%29.98 "HgN/A
11:20 PM61 °FLight rain. Partly cloudy.8 mph94%29.98 "HgN/A
10:50 PM63 °FPassing clouds.10 mph94%29.98 "HgN/A
10:20 PM63 °FSprinkles. Partly cloudy.15 mph94%29.95 "HgN/A
9:50 PM66 °FSprinkles. Partly sunny.5 mph100%29.95 "HgN/A
9:20 PM66 °FPartly sunny.2 mph100%29.92 "HgN/A
8:50 PM66 °FBroken clouds.3 mph100%29.92 "HgN/A
8:20 PM66 °FPartly sunny.5 mph100%29.92 "HgN/A
7:50 PM66 °FSprinkles. Partly sunny.2 mph100%29.92 "HgN/A
7:20 PM68 °FSprinkles. Broken clouds.6 mph94%29.92 "HgN/A
6:50 PM68 °FRain showers. Broken clouds.6 mph94%29.92 "Hg4 mi
6:20 PM68 °FRain showers. Broken clouds.9 mph88%29.92 "Hg4 mi
5:50 PM70 °FSprinkles. Broken clouds.12 mph88%29.86 "HgN/A
5:20 PM72 °FSprinkles. Partly sunny.9 mph88%29.86 "HgN/A
4:50 PM72 °FScattered showers. Partly sunny.No wind88%29.86 "HgN/A
4:20 PM70 °FLots of rain. Broken clouds.7 mph88%29.86 "Hg4 mi
3:50 PM72 °FStrong thunderstorms. Partly sunny.16 mph83%29.86 "Hg3 mi
3:20 PM82 °FScattered showers. Partly sunny.13 mph48%29.80 "HgN/A
2:50 PM86 °FPassing clouds.8 mph46%29.80 "HgN/A
2:20 PM84 °FPassing clouds.7 mph48%29.83 "HgN/A
1:50 PM86 °FSunny.3 mph43%29.83 "Hg10 mi
1:20 PM86 °FPassing clouds.5 mph46%29.83 "HgN/A
12:50 PM84 °FSunny.3 mph43%29.83 "Hg10 mi
12:20 PM82 °FPassing clouds.5 mph45%29.83 "HgN/A
11:50 AM82 °FPassing clouds.3 mph51%29.86 "HgN/A
11:20 AM81 °FSunny.3 mph51%29.86 "Hg10 mi
10:50 AM81 °FPassing clouds.7 mph51%29.86 "HgN/A
10:20 AM81 °FPassing clouds.8 mph48%29.86 "HgN/A
9:50 AM79 °FSunny.10 mph54%29.86 "Hg10 mi
9:20 AM77 °FPassing clouds.10 mph54%29.86 "HgN/A
8:50 AM75 °FPassing clouds.10 mph57%29.86 "HgN/A
8:20 AM73 °FPassing clouds.8 mph61%29.89 "HgN/A
7:50 AM72 °FPassing clouds.9 mph61%29.89 "HgN/A
7:20 AM70 °FPassing clouds.10 mph64%29.89 "HgN/A
Weather by CustomWeather, © 2015

See weather overviewHow to use our weather pages